Weather in Seliyarovo

Russia / Khanty-Mansi Autonomous Okrug — Yugra     61°17′40″N   70°21′07″E
temp.,
°C
wind,
m/s
gust,
m/s
humid.,
%
clouds,
%
prec.,
mm/h
press.,
hPa
HPBL,
m
28 february, sun
sun2823:00−25s239942 0.0 102720
02:00−27sse239912 0.0 102619
05:00−28se339910 0.0 102620
08:00−28se34961 0.0 102627
11:00−24ese35940 0.0 1025199
14:00−21e46930 0.0 1024260
17:00−23e45966 0.0 102388
20:00−24e46970 0.0 102379
1 march, mon
mon123:00−26e44980 0.0 102347
02:00−27e44970 0.0 102243
05:00−28e45970 0.0 102249
08:00−28e44970 0.0 102263
11:00−24e46930 0.0 1022189
14:00−21e45900 0.0 1020202
17:00−23e34900 0.0 102037
20:00−25ese34940 0.0 101924
2 march, tue
tue223:00−25sse33980 0.0 101921
02:00−26sse33980 0.0 101820
05:00−26sse34970 0.0 101724
08:00−26sse34960 0.0 101632
11:00−21sse46950 0.0 1016235
14:00−17sse369268 0.0 1014337
17:00−17se449684 0.0 101367
20:00−19sse459890 0.0 101375
3 march, wed
wed323:00−20sse4710084 0.0 101293
02:00−21sse459971 0.0 101179
05:00−22sse469871 0.0 101188
08:00−21sse489792 0.0 1010133
11:00−16sse599395 0.0 1010360
14:00−12sse5991100 0.0 1009511
17:00−12sse51092100 0.1 1008440
20:00−12sse51293100 0.0 1008451
4 march, thu
thu423:00−13sse41093100 0.1 1007423
02:00−13sse5995100 0.2 1005452
05:00−13sse5995100 0.7 1005491
08:00−13sse4895100 0.4 1004414
11:00−12sse4693100 0.8 1003459
14:00−10sse4691100 0.3 1003498
17:00−11se3494100 0.3 100389
20:00−11se3396100 0.2 100272